Tabellarische Ansicht des 17.9.2020


Die einzelnen Werte des Tages

Uhrzeit Temperatur Luftdruck Luftfeuchte Wind Hi-Wind Taupunkt THW Index Wind Chill Heat Index Solar- strahlung Regen

00:00

14.0 C

1021.6 hpa

81 %

1.6 km/h aus 117

4.8 km/h aus WNW

10.8 C

13.9 C

14.0 C

13.9 C

0 W/m

0.00 mm

00:05

13.9 C

1021.6 hpa

81 %

1.6 km/h aus 113

6.4 km/h aus WNW

10.7 C

13.7 C

13.9 C

13.7 C

0 W/m

0.00 mm

00:10

13.8 C

1021.6 hpa

82 %

3.2 km/h aus 114

6.4 km/h aus WNW

10.8 C

13.7 C

13.8 C

13.7 C

0 W/m

0.00 mm

00:15

13.8 C

1021.7 hpa

82 %

1.6 km/h aus 117

4.8 km/h aus WNW

10.8 C

13.7 C

13.8 C

13.7 C

0 W/m

0.00 mm

00:20

13.7 C

1021.7 hpa

82 %

1.6 km/h aus 116

4.8 km/h aus WNW

10.6 C

13.6 C

13.7 C

13.6 C

0 W/m

0.00 mm

00:25

13.6 C

1021.7 hpa

82 %

3.2 km/h aus 117

6.4 km/h aus WNW

10.5 C

13.4 C

13.6 C

13.4 C

0 W/m

0.00 mm

00:30

13.5 C

1021.8 hpa

83 %

3.2 km/h aus 114

6.4 km/h aus WNW

10.7 C

13.4 C

13.5 C

13.4 C

0 W/m

0.00 mm

00:35

13.4 C

1021.8 hpa

83 %

3.2 km/h aus 115

8.0 km/h aus WNW

10.6 C

13.3 C

13.4 C

13.3 C

0 W/m

0.00 mm

00:40

13.4 C

1021.8 hpa

83 %

3.2 km/h aus 116

6.4 km/h aus WNW

10.6 C

13.3 C

13.4 C

13.3 C

0 W/m

0.00 mm

00:45

13.4 C

1022.0 hpa

84 %

3.2 km/h aus 117

8.0 km/h aus NW

10.7 C

13.3 C

13.4 C

13.3 C

0 W/m

0.00 mm

00:50

13.4 C

1022.0 hpa

84 %

1.6 km/h aus 116

6.4 km/h aus WNW

10.7 C

13.3 C

13.4 C

13.3 C

0 W/m

0.00 mm

00:55

13.4 C

1022.0 hpa

84 %

4.8 km/h aus 115

9.7 km/h aus WNW

10.7 C

13.3 C

13.4 C

13.3 C

0 W/m

0.00 mm

01:00

13.4 C

1022.1 hpa

84 %

3.2 km/h aus 116

11.3 km/h aus NW

10.7 C

13.3 C

13.4 C

13.3 C

0 W/m

0.00 mm

01:05

13.4 C

1022.1 hpa

84 %

4.8 km/h aus 117

11.3 km/h aus NW

10.7 C

13.3 C

13.4 C

13.3 C

0 W/m

0.00 mm

01:10

13.4 C

1022.1 hpa

84 %

4.8 km/h aus 117

11.3 km/h aus WNW

10.7 C

13.3 C

13.4 C

13.3 C

0 W/m

0.00 mm

01:15

13.4 C

1022.3 hpa

84 %

6.4 km/h aus 117

11.3 km/h aus NW

10.7 C

13.2 C

13.3 C

13.3 C

0 W/m

0.00 mm

01:20

13.4 C

1022.3 hpa

84 %

4.8 km/h aus 115

9.7 km/h aus NW

10.7 C

13.3 C

13.4 C

13.3 C

0 W/m

0.00 mm

01:25

13.3 C

1022.3 hpa

84 %

6.4 km/h aus 114

11.3 km/h aus WNW

10.7 C

13.2 C

13.2 C

13.3 C

0 W/m

0.00 mm

01:30

13.3 C

1022.4 hpa

84 %

4.8 km/h aus 115

11.3 km/h aus NNW

10.7 C

13.3 C

13.3 C

13.3 C

0 W/m

0.00 mm

01:35

13.3 C

1022.4 hpa

84 %

4.8 km/h aus 116

11.3 km/h aus NNW

10.6 C

13.2 C

13.3 C

13.2 C

0 W/m

0.00 mm

01:40

13.3 C

1022.4 hpa

84 %

8.0 km/h aus 113

19.3 km/h aus WNW

10.6 C

12.8 C

12.9 C

13.2 C

0 W/m

0.00 mm

01:45

13.2 C

1022.6 hpa

84 %

6.4 km/h aus 110

14.5 km/h aus N

10.6 C

13.1 C

13.1 C

13.2 C

0 W/m

0.00 mm

01:50

13.2 C

1022.6 hpa

84 %

3.2 km/h aus 115

9.7 km/h aus NNW

10.6 C

13.2 C

13.2 C

13.2 C

0 W/m

0.00 mm

01:55

13.2 C

1022.6 hpa

83 %

6.4 km/h aus 111

14.5 km/h aus N

10.3 C

12.9 C

13.0 C

13.1 C

0 W/m

0.00 mm

02:00

13.1 C

1022.6 hpa

83 %

4.8 km/h aus 113

14.5 km/h aus NNW

10.3 C

13.0 C

13.1 C

13.0 C

0 W/m

0.00 mm

02:05

13.1 C

1022.6 hpa

83 %

3.2 km/h aus 117

8.0 km/h aus N

10.3 C

13.0 C

13.1 C

13.0 C

0 W/m

0.00 mm

02:10

13.1 C

1022.6 hpa

83 %

4.8 km/h aus 114

9.7 km/h aus NW

10.2 C

12.9 C

13.1 C

12.9 C

0 W/m

0.00 mm

02:15

13.0 C

1022.6 hpa

83 %

3.2 km/h aus 115

8.0 km/h aus NNW

10.2 C

12.9 C

13.0 C

12.9 C

0 W/m

0.00 mm

02:20

12.9 C

1022.6 hpa

83 %

3.2 km/h aus 117

8.0 km/h aus N

10.1 C

12.8 C

12.9 C

12.8 C

0 W/m

0.00 mm

02:25

12.8 C

1022.6 hpa

83 %

1.6 km/h aus 117

8.0 km/h aus NNW

10.0 C

12.7 C

12.8 C

12.7 C

0 W/m

0.00 mm

02:30

12.8 C

1022.7 hpa

83 %

1.6 km/h aus 117

6.4 km/h aus NNW

10.0 C

12.7 C

12.8 C

12.7 C

0 W/m

0.00 mm

02:35

12.7 C

1022.7 hpa

83 %

1.6 km/h aus 115

4.8 km/h aus NW

9.9 C

12.6 C

12.7 C

12.6 C

0 W/m

0.00 mm

02:40

12.6 C

1022.7 hpa

83 %

1.6 km/h aus 114

3.2 km/h aus NW

9.8 C

12.5 C

12.6 C

12.5 C

0 W/m

0.00 mm

02:45

12.5 C

1022.6 hpa

83 %

1.6 km/h aus 115

6.4 km/h aus WNW

9.7 C

12.4 C

12.5 C

12.4 C

0 W/m

0.00 mm

02:50

12.4 C

1022.6 hpa

83 %

1.6 km/h aus 116

4.8 km/h aus NW

9.6 C

12.3 C

12.4 C

12.3 C

0 W/m

0.00 mm

02:55

12.3 C

1022.6 hpa

83 %

1.6 km/h aus 117

4.8 km/h aus NW

9.5 C

12.2 C

12.3 C

12.2 C

0 W/m

0.00 mm

03:00

12.3 C

1022.8 hpa

84 %

1.6 km/h aus 114

6.4 km/h aus NNW

9.7 C

12.2 C

12.3 C

12.2 C

0 W/m

0.00 mm

03:05

12.2 C

1022.8 hpa

84 %

3.2 km/h aus 115

8.0 km/h aus NW

9.6 C

12.2 C

12.2 C

12.2 C

0 W/m

0.00 mm

03:10

12.2 C

1022.8 hpa

85 %

3.2 km/h aus 117

8.0 km/h aus NW

9.7 C

12.1 C

12.2 C

12.1 C

0 W/m

0.00 mm

03:15

12.2 C

1022.9 hpa

85 %

1.6 km/h aus 117

6.4 km/h aus NW

9.7 C

12.1 C

12.2 C

12.1 C

0 W/m

0.00 mm

03:20

12.1 C

1022.9 hpa

85 %

3.2 km/h aus 117

6.4 km/h aus NW

9.7 C

12.1 C

12.1 C

12.1 C

0 W/m

0.00 mm

03:25

12.1 C

1022.9 hpa

85 %

1.6 km/h aus 116

9.7 km/h aus NW

9.6 C

12.0 C

12.1 C

12.0 C

0 W/m

0.00 mm

03:30

12.0 C

1023.0 hpa

86 %

1.6 km/h aus 115

6.4 km/h aus NW

9.7 C

11.9 C

12.0 C

11.9 C

0 W/m

0.00 mm

03:35

11.9 C

1023.0 hpa

86 %

3.2 km/h aus 116

6.4 km/h aus NW

9.7 C

11.9 C

11.9 C

11.9 C

0 W/m

0.00 mm

03:40

11.9 C

1023.0 hpa

86 %

3.2 km/h aus 117

6.4 km/h aus NW

9.6 C

11.8 C

11.9 C

11.8 C

0 W/m

0.00 mm

03:45

11.8 C

1023.2 hpa

86 %

0.0 km/h aus 117

3.2 km/h aus NW

9.6 C

11.8 C

11.8 C

11.8 C

0 W/m

0.00 mm

03:50

11.8 C

1023.2 hpa

86 %

1.6 km/h aus 117

4.8 km/h aus WNW

9.6 C

11.8 C

11.8 C

11.8 C

0 W/m

0.00 mm

03:55

11.8 C

1023.2 hpa

86 %

1.6 km/h aus 115

4.8 km/h aus NW

9.5 C

11.7 C

11.8 C

11.7 C

0 W/m

0.00 mm

04:00

11.7 C

1023.1 hpa

86 %

0.0 km/h aus 115

3.2 km/h aus NW

9.5 C

11.7 C

11.7 C

11.7 C

0 W/m

0.00 mm

04:05

11.7 C

1023.1 hpa

86 %

0.0 km/h aus 117

3.2 km/h aus NW

9.4 C

11.6 C

11.7 C

11.6 C

0 W/m

0.00 mm

04:10

11.7 C

1023.1 hpa

86 %

0.0 km/h aus 116

3.2 km/h aus NW

9.4 C

11.6 C

11.7 C

11.6 C

0 W/m

0.00 mm

04:15

11.6 C

1023.2 hpa

86 %

0.0 km/h aus 118

3.2 km/h aus NW

9.3 C

11.6 C

11.6 C

11.6 C

0 W/m

0.00 mm

04:20

11.6 C

1023.2 hpa

87 %

0.0 km/h aus 115

1.6 km/h aus NW

9.5 C

11.6 C

11.6 C

11.6 C

0 W/m

0.00 mm

04:25

11.5 C

1023.2 hpa

87 %

0.0 km/h aus 115

3.2 km/h aus NW

9.4 C

11.5 C

11.5 C

11.5 C

0 W/m

0.00 mm

04:30

11.5 C

1023.2 hpa

87 %

1.6 km/h aus 117

3.2 km/h aus NW

9.4 C

11.5 C

11.5 C

11.5 C

0 W/m

0.00 mm

04:35

11.4 C

1023.2 hpa

87 %

0.0 km/h aus 116

1.6 km/h aus NW

9.3 C

11.4 C

11.4 C

11.4 C

0 W/m

0.00 mm

04:40

11.3 C

1023.2 hpa

86 %

0.0 km/h aus 117

1.6 km/h aus NW

9.0 C

11.3 C

11.3 C

11.3 C

0 W/m

0.00 mm

04:45

11.2 C

1023.5 hpa

86 %

0.0 km/h aus 115

0.0 km/h aus ---

8.9 C

11.2 C

11.2 C

11.2 C

0 W/m

0.00 mm

04:50

11.1 C

1023.5 hpa

86 %

0.0 km/h aus 114

0.0 km/h aus ---

8.8 C

11.1 C

11.1 C

11.1 C

0 W/m

0.00 mm

04:55

10.9 C

1023.5 hpa

86 %

0.0 km/h aus 116

0.0 km/h aus ---

8.6 C

10.9 C

10.9 C

10.9 C

0 W/m

0.00 mm

05:00

10.8 C

1023.4 hpa

86 %

0.0 km/h aus 117

0.0 km/h aus ---

8.5 C

10.8 C

10.8 C

10.8 C

0 W/m

0.00 mm

05:05

10.6 C

1023.4 hpa

85 %

0.0 km/h aus 116

0.0 km/h aus ---

8.2 C

10.6 C

10.6 C

10.6 C

0 W/m

0.00 mm

05:10

10.4 C

1023.4 hpa

85 %

0.0 km/h aus 116

1.6 km/h aus NW

8.0 C

10.4 C

10.4 C

10.4 C

0 W/m

0.00 mm

05:15

10.3 C

1023.4 hpa

85 %

0.0 km/h aus 114

0.0 km/h aus ---

7.9 C

10.3 C

10.3 C

10.3 C

0 W/m

0.00 mm

05:20

10.2 C

1023.4 hpa

85 %

0.0 km/h aus 115

0.0 km/h aus ---

7.8 C

10.2 C

10.2 C

10.2 C

0 W/m

0.00 mm

05:25

10.1 C

1023.4 hpa

85 %

1.6 km/h aus 116

3.2 km/h aus NW

7.6 C

10.1 C

10.1 C

10.1 C

0 W/m

0.00 mm

05:30

9.9 C

1023.6 hpa

85 %

0.0 km/h aus 117

0.0 km/h aus ---

7.5 C

10.0 C

9.9 C

10.0 C

0 W/m

0.00 mm

05:35

9.8 C

1023.6 hpa

85 %

0.0 km/h aus 117

0.0 km/h aus ---

7.4 C

9.8 C

9.8 C

9.8 C

0 W/m

0.00 mm

05:40

9.7 C

1023.6 hpa

85 %

0.0 km/h aus 116

0.0 km/h aus ---

7.3 C

9.7 C

9.7 C

9.7 C

0 W/m

0.00 mm

05:45

9.5 C

1023.6 hpa

85 %

0.0 km/h aus 114

0.0 km/h aus ---

7.1 C

9.6 C

9.5 C

9.6 C

0 W/m

0.00 mm

05:50

9.4 C

1023.6 hpa

85 %

0.0 km/h aus 116

0.0 km/h aus ---

7.0 C

9.4 C

9.4 C

9.4 C

0 W/m

0.00 mm

05:55

9.3 C

1023.6 hpa

85 %

0.0 km/h aus 116

0.0 km/h aus ---

6.9 C

9.3 C

9.3 C

9.3 C

0 W/m

0.00 mm

06:00

9.1 C

1023.7 hpa

85 %

0.0 km/h aus 116

0.0 km/h aus ---

6.7 C

9.1 C

9.1 C

9.1 C

0 W/m

0.00 mm

06:05

9.0 C

1023.7 hpa

85 %

0.0 km/h aus 117

0.0 km/h aus ---

6.6 C

9.0 C

9.0 C

9.0 C

0 W/m

0.00 mm

06:10

8.9 C

1023.7 hpa

85 %

0.0 km/h aus 114

0.0 km/h aus ---

6.5 C

8.9 C

8.9 C

8.9 C

0 W/m

0.00 mm

06:15

8.8 C

1023.7 hpa

86 %

0.0 km/h aus 114

0.0 km/h aus ---

6.6 C

8.8 C

8.8 C

8.8 C

0 W/m

0.00 mm

06:20

8.7 C

1023.7 hpa

85 %

0.0 km/h aus 117

0.0 km/h aus ---

6.3 C

8.7 C

8.7 C

8.7 C

0 W/m

0.00 mm

06:25

8.6 C

1023.7 hpa

86 %

0.0 km/h aus 116

0.0 km/h aus ---

6.3 C

8.6 C

8.6 C

8.6 C

0 W/m

0.00 mm

06:30

8.4 C

1024.0 hpa

86 %

0.0 km/h aus 116

0.0 km/h aus ---

6.2 C

8.4 C

8.4 C

8.4 C

0 W/m

0.00 mm

06:35

8.4 C

1024.0 hpa

86 %

0.0 km/h aus 117

0.0 km/h aus ---

6.2 C

8.4 C

8.4 C

8.4 C

0 W/m

0.00 mm

06:40

8.3 C

1024.0 hpa

86 %

0.0 km/h aus 115

0.0 km/h aus ---

6.1 C

8.3 C

8.3 C

8.3 C

0 W/m

0.00 mm

06:45

8.2 C

1024.1 hpa

86 %

0.0 km/h aus 115

0.0 km/h aus ---

6.0 C

8.2 C

8.2 C

8.2 C

0 W/m

0.00 mm

06:50

8.1 C

1024.1 hpa

86 %

0.0 km/h aus 116

0.0 km/h aus ---

5.9 C

8.1 C

8.1 C

8.1 C

0 W/m

0.00 mm

06:55

7.9 C

1024.1 hpa

86 %

0.0 km/h aus 117

0.0 km/h aus ---

5.7 C

7.9 C

7.9 C

7.9 C

0 W/m

0.00 mm

07:00

7.9 C

1024.2 hpa

86 %

0.0 km/h aus 117

0.0 km/h aus ---

5.7 C

7.9 C

7.9 C

7.9 C

3 W/m

0.00 mm

07:05

7.8 C

1024.2 hpa

86 %

0.0 km/h aus 116

0.0 km/h aus ---

5.6 C

7.8 C

7.8 C

7.8 C

7 W/m

0.00 mm

07:10

7.7 C

1024.2 hpa

86 %

0.0 km/h aus 116

0.0 km/h aus ---

5.5 C

7.7 C

7.7 C

7.7 C

11 W/m

0.00 mm

07:15

7.7 C

1024.6 hpa

86 %

0.0 km/h aus 114

1.6 km/h aus NW

5.5 C

7.7 C

7.7 C

7.7 C

14 W/m

0.00 mm

07:20

7.6 C

1024.6 hpa

86 %

0.0 km/h aus 115

0.0 km/h aus ---

5.4 C

7.6 C

7.6 C

7.6 C

19 W/m

0.00 mm

07:25

7.6 C

1024.6 hpa

86 %

0.0 km/h aus 118

0.0 km/h aus ---

5.4 C

7.6 C

7.6 C

7.6 C

23 W/m

0.00 mm

07:30

7.6 C

1024.9 hpa

87 %

0.0 km/h aus 117

0.0 km/h aus ---

5.5 C

7.6 C

7.6 C

7.6 C

27 W/m

0.00 mm

07:35

7.5 C

1024.9 hpa

87 %

0.0 km/h aus 116

0.0 km/h aus ---

5.5 C

7.5 C

7.5 C

7.5 C

32 W/m

0.00 mm

07:40

7.5 C

1024.9 hpa

87 %

0.0 km/h aus 116

0.0 km/h aus ---

5.5 C

7.5 C

7.5 C

7.5 C

35 W/m

0.00 mm

07:45

7.5 C

1025.2 hpa

87 %

0.0 km/h aus 114

3.2 km/h aus NW

5.5 C

7.5 C

7.5 C

7.5 C

39 W/m

0.00 mm

07:50

7.6 C

1025.2 hpa

88 %

0.0 km/h aus 116

3.2 km/h aus NW

5.7 C

7.6 C

7.6 C

7.6 C

42 W/m

0.00 mm

07:55

7.7 C

1025.2 hpa

88 %

0.0 km/h aus 116

1.6 km/h aus NW

5.9 C

7.8 C

7.7 C

7.8 C

46 W/m

0.00 mm

08:00

7.9 C

1025.3 hpa

89 %

0.0 km/h aus 116

4.8 km/h aus NNW

6.2 C

8.0 C

7.9 C

8.0 C

50 W/m

0.00 mm

08:05

8.2 C

1025.3 hpa

89 %

0.0 km/h aus 115

4.8 km/h aus NNW

6.5 C

8.2 C

8.2 C

8.2 C

54 W/m

0.00 mm

08:10

8.3 C

1025.3 hpa

90 %

0.0 km/h aus 116

3.2 km/h aus N

6.8 C

8.4 C

8.3 C

8.4 C

57 W/m

0.00 mm

08:15

8.6 C

1025.4 hpa

90 %

0.0 km/h aus 114

3.2 km/h aus N

7.0 C

8.7 C

8.6 C

8.7 C

62 W/m

0.00 mm

08:20

8.8 C

1025.4 hpa

91 %

0.0 km/h aus 115

1.6 km/h aus N

7.4 C

8.9 C

8.8 C

8.9 C

66 W/m

0.00 mm

08:25

8.9 C

1025.4 hpa

91 %

0.0 km/h aus 117

3.2 km/h aus N

7.6 C

9.1 C

8.9 C

9.1 C

107 W/m

0.00 mm

08:30

9.2 C

1025.6 hpa

91 %

1.6 km/h aus 118

3.2 km/h aus N

7.8 C

9.3 C

9.2 C

9.3 C

153 W/m

0.00 mm

08:35

9.3 C

1025.6 hpa

91 %

1.6 km/h aus 117

4.8 km/h aus NE

7.9 C

9.5 C

9.3 C

9.5 C

169 W/m

0.00 mm

08:40

9.6 C

1025.6 hpa

91 %

0.0 km/h aus 114

4.8 km/h aus NNE

8.2 C

9.7 C

9.6 C

9.7 C

182 W/m

0.00 mm

08:45

9.7 C

1025.7 hpa

92 %

1.6 km/h aus 115

4.8 km/h aus NNE

8.5 C

9.9 C

9.7 C

9.9 C

196 W/m

0.00 mm

08:50

10.0 C

1025.7 hpa

92 %

0.0 km/h aus 116

4.8 km/h aus NE

8.8 C

10.2 C

10.0 C

10.2 C

206 W/m

0.00 mm

08:55

10.2 C

1025.7 hpa

92 %

3.2 km/h aus 117

9.7 km/h aus NE

8.9 C

10.3 C

10.2 C

10.3 C

224 W/m

0.00 mm

09:00

10.3 C

1025.8 hpa

91 %

3.2 km/h aus 117

9.7 km/h aus NE

8.9 C

10.4 C

10.3 C

10.4 C

240 W/m

0.00 mm

09:05

10.4 C

1025.8 hpa

92 %

3.2 km/h aus 115

9.7 km/h aus NNE

9.1 C

10.6 C

10.4 C

10.6 C

255 W/m

0.00 mm

09:10

10.6 C

1025.8 hpa

91 %

3.2 km/h aus 115

9.7 km/h aus NE

9.1 C

10.7 C

10.6 C

10.7 C

271 W/m

0.00 mm

09:15

10.7 C

1025.9 hpa

90 %

4.8 km/h aus 117

16.1 km/h aus NE

9.1 C

10.7 C

10.6 C

10.8 C

284 W/m

0.00 mm

09:20

10.9 C

1025.9 hpa

87 %

1.6 km/h aus 117

9.7 km/h aus N

8.9 C

11.0 C

10.9 C

11.0 C

292 W/m

0.00 mm

09:25

11.2 C

1025.9 hpa

86 %

3.2 km/h aus 116

9.7 km/h aus N

9.0 C

11.2 C

11.2 C

11.2 C

301 W/m

0.00 mm

09:30

11.5 C

1026.0 hpa

84 %

1.6 km/h aus 116

8.0 km/h aus ENE

8.9 C

11.4 C

11.5 C

11.4 C

313 W/m

0.00 mm

09:35

11.6 C

1026.0 hpa

83 %

3.2 km/h aus 115

9.7 km/h aus NE

8.8 C

11.4 C

11.6 C

11.4 C

327 W/m

0.00 mm

09:40

11.8 C

1026.0 hpa

82 %

1.6 km/h aus 116

8.0 km/h aus NE

8.8 C

11.7 C

11.8 C

11.7 C

340 W/m

0.00 mm

09:45

11.9 C

1026.2 hpa

81 %

3.2 km/h aus 117

9.7 km/h aus NE

8.8 C

11.8 C

11.9 C

11.8 C

351 W/m

0.00 mm

09:50

12.2 C

1026.2 hpa

80 %

4.8 km/h aus 117

9.7 km/h aus NE

8.9 C

12.1 C

12.2 C

12.1 C

361 W/m

0.00 mm

09:55

12.3 C

1026.2 hpa

79 %

4.8 km/h aus 115

9.7 km/h aus ENE

8.8 C

12.2 C

12.3 C

12.2 C

371 W/m

0.00 mm

10:00

12.7 C

1026.3 hpa

79 %

3.2 km/h aus 115

14.5 km/h aus N

9.1 C

12.5 C

12.7 C

12.5 C

377 W/m

0.00 mm

10:05

12.9 C

1026.3 hpa

76 %

6.4 km/h aus 115

17.7 km/h aus NNE

8.8 C

12.4 C

12.7 C

12.6 C

388 W/m

0.00 mm

10:10

13.2 C

1026.3 hpa

76 %

6.4 km/h aus 111

17.7 km/h aus NE

9.1 C

12.8 C

13.1 C

12.9 C

398 W/m

0.00 mm

10:15

13.4 C

1026.4 hpa

74 %

6.4 km/h aus 114

17.7 km/h aus NE

8.9 C

13.0 C

13.3 C

13.1 C

407 W/m

0.00 mm

10:20

13.7 C

1026.4 hpa

72 %

8.0 km/h aus 114

19.3 km/h aus NE

8.8 C

13.0 C

13.4 C

13.3 C

416 W/m

0.00 mm

10:25

13.9 C

1026.4 hpa

71 %

6.4 km/h aus 105

19.3 km/h aus NNE

8.8 C

13.6 C

13.9 C

13.6 C

427 W/m

0.00 mm

10:30

14.1 C

1026.4 hpa

69 %

8.0 km/h aus 107

20.9 km/h aus NE

8.5 C

13.4 C

13.8 C

13.7 C

436 W/m

0.00 mm

10:35

14.5 C

1026.4 hpa

67 %

6.4 km/h aus 114

17.7 km/h aus NE

8.4 C

14.0 C

14.5 C

14.0 C

447 W/m

0.00 mm

10:40

14.7 C

1026.4 hpa

66 %

6.4 km/h aus 112

19.3 km/h aus NNE

8.4 C

14.2 C

14.7 C

14.2 C

457 W/m

0.00 mm

10:45

14.6 C

1026.3 hpa

65 %

8.0 km/h aus 113

17.7 km/h aus NE

8.1 C

13.9 C

14.4 C

14.1 C

467 W/m

0.00 mm

10:50

15.0 C

1026.3 hpa

65 %

6.4 km/h aus 112

20.9 km/h aus NE

8.5 C

14.4 C

15.0 C

14.4 C

476 W/m

0.00 mm

10:55

14.8 C

1026.3 hpa

63 %

11.3 km/h aus 93

19.3 km/h aus N

7.9 C

13.6 C

14.2 C

14.2 C

484 W/m

0.00 mm

11:00

15.0 C

1026.5 hpa

64 %

9.7 km/h aus 108

20.9 km/h aus N

8.2 C

14.1 C

14.7 C

14.4 C

477 W/m

0.00 mm

11:05

15.2 C

1026.5 hpa

63 %

9.7 km/h aus 103

20.9 km/h aus NNE

8.2 C

14.3 C

14.9 C

14.6 C

490 W/m

0.00 mm

11:10

15.2 C

1026.5 hpa

62 %

11.3 km/h aus 107

24.1 km/h aus N

7.9 C

14.0 C

14.7 C

14.5 C

510 W/m

0.00 mm

11:15

15.2 C

1026.6 hpa

61 %

12.9 km/h aus 106

27.4 km/h aus NE

7.7 C

13.7 C

14.3 C

14.6 C

520 W/m

0.00 mm

11:20

15.2 C

1026.6 hpa

59 %

14.5 km/h aus 102

27.4 km/h aus NNE

7.3 C

13.1 C

13.9 C

14.4 C

520 W/m

0.00 mm

11:25

15.6 C

1026.6 hpa

59 %

9.7 km/h aus 107

25.7 km/h aus NE

7.6 C

14.6 C

15.3 C

14.8 C

524 W/m

0.00 mm

11:30

15.7 C

1026.7 hpa

59 %

12.9 km/h aus 104

22.5 km/h aus N

7.7 C

14.1 C

14.8 C

14.9 C

528 W/m

0.00 mm

11:35

15.8 C

1026.7 hpa

57 %

8.0 km/h aus 103

20.9 km/h aus NNW

7.3 C

14.9 C

15.8 C

14.9 C

528 W/m

0.00 mm

11:40

16.0 C

1026.7 hpa

56 %

9.7 km/h aus 110

30.6 km/h aus NE

7.2 C

15.1 C

15.9 C

15.2 C

533 W/m

0.00 mm

11:45

15.8 C

1026.7 hpa

56 %

9.7 km/h aus 103

20.9 km/h aus ENE

7.0 C

14.8 C

15.6 C

14.9 C

534 W/m

0.00 mm

11:50

16.1 C

1026.7 hpa

57 %

8.0 km/h aus 110

19.3 km/h aus NE

7.5 C

15.3 C

16.1 C

15.3 C

540 W/m

0.00 mm

11:55

16.3 C

1026.7 hpa

56 %

6.4 km/h aus 114

16.1 km/h aus NNE

7.5 C

15.4 C

16.3 C

15.4 C

541 W/m

0.00 mm

12:00

16.6 C

1026.5 hpa

55 %

8.0 km/h aus 106

19.3 km/h aus NNW

7.5 C

15.8 C

16.6 C

15.8 C

542 W/m

0.00 mm

12:05

16.8 C

1026.5 hpa

53 %

8.0 km/h aus 108

19.3 km/h aus NE

7.1 C

15.9 C

16.8 C

15.9 C

546 W/m

0.00 mm

12:10

16.4 C

1026.5 hpa

53 %

11.3 km/h aus 109

22.5 km/h aus NNE

6.8 C

15.2 C

16.2 C

15.4 C

549 W/m

0.00 mm

12:15

16.7 C

1026.5 hpa

52 %

9.7 km/h aus 98

25.7 km/h aus NNW

6.8 C

15.7 C

16.7 C

15.7 C

550 W/m

0.00 mm

12:20

16.7 C

1026.5 hpa

50 %

12.9 km/h aus 106

20.9 km/h aus N

6.2 C

15.0 C

16.1 C

15.6 C

553 W/m

0.00 mm

12:25

16.9 C

1026.5 hpa

51 %

9.7 km/h aus 102

19.3 km/h aus NE

6.7 C

15.9 C

16.9 C

15.9 C

554 W/m

0.00 mm

12:30

17.1 C

1026.5 hpa

51 %

8.0 km/h aus 104

19.3 km/h aus NE

6.8 C

16.1 C

17.1 C

16.1 C

556 W/m

0.00 mm

12:35

17.0 C

1026.5 hpa

51 %

9.7 km/h aus 103

19.3 km/h aus NNE

6.8 C

16.0 C

17.0 C

16.0 C

560 W/m

0.00 mm

12:40

17.3 C

1026.5 hpa

50 %

6.4 km/h aus 109

17.7 km/h aus NE

6.8 C

16.2 C

17.3 C

16.2 C

562 W/m

0.00 mm

12:45

17.1 C

1026.4 hpa

50 %

11.3 km/h aus 102

25.7 km/h aus ENE

6.6 C

16.0 C

17.1 C

16.1 C

561 W/m

0.00 mm

12:50

16.9 C

1026.4 hpa

49 %

11.3 km/h aus 101

24.1 km/h aus E

6.1 C

15.7 C

16.8 C

15.8 C

565 W/m

0.00 mm

12:55

16.8 C

1026.4 hpa

49 %

14.5 km/h aus 102

27.4 km/h aus ENE

6.0 C

14.7 C

15.8 C

15.7 C

562 W/m

0.00 mm

13:00

17.2 C

1026.3 hpa

49 %

12.9 km/h aus 94

22.5 km/h aus NNE

6.4 C

15.6 C

16.7 C

16.1 C

567 W/m

0.00 mm

13:05

17.1 C

1026.3 hpa

48 %

11.3 km/h aus 103

22.5 km/h aus N

6.0 C

15.9 C

17.1 C

15.9 C

564 W/m

0.00 mm

13:10

17.3 C

1026.3 hpa

48 %

11.3 km/h aus 102

22.5 km/h aus ENE

6.2 C

16.2 C

17.3 C

16.2 C

558 W/m

0.00 mm

13:15

17.1 C

1026.2 hpa

50 %

11.3 km/h aus 102

24.1 km/h aus ENE

6.6 C

16.0 C

17.1 C

16.1 C

554 W/m

0.00 mm

13:20

17.4 C

1026.2 hpa

48 %

12.9 km/h aus 94

22.5 km/h aus NNE

6.3 C

15.8 C

16.9 C

16.3 C

555 W/m

0.00 mm

13:25

17.6 C

1026.2 hpa

48 %

8.0 km/h aus 96

19.3 km/h aus NNE

6.4 C

16.4 C

17.6 C

16.4 C

557 W/m

0.00 mm

13:30

17.7 C

1026.2 hpa

47 %

6.4 km/h aus 104

16.1 km/h aus NNE

6.3 C

16.6 C

17.7 C

16.6 C

565 W/m

0.00 mm

13:35

17.9 C

1026.2 hpa

46 %

11.3 km/h aus 85

22.5 km/h aus NNE

6.1 C

16.7 C

17.9 C

16.7 C

564 W/m

0.00 mm

13:40

17.7 C

1026.2 hpa

44 %

12.9 km/h aus 102

24.1 km/h aus ENE

5.3 C

15.9 C

17.2 C

16.4 C

560 W/m

0.00 mm

13:45

17.7 C

1026.0 hpa

44 %

8.0 km/h aus 103

16.1 km/h aus NE

5.3 C

16.4 C

17.7 C

16.4 C

563 W/m

0.00 mm

13:50

17.9 C

1026.0 hpa

45 %

6.4 km/h aus 116

25.7 km/h aus NE

5.8 C

16.7 C

17.9 C

16.7 C

560 W/m

0.00 mm

13:55

17.8 C

1026.0 hpa

46 %

8.0 km/h aus 102

22.5 km/h aus NE

6.0 C

16.7 C

17.8 C

16.7 C

553 W/m

0.00 mm

14:00

17.9 C

1025.8 hpa

46 %

9.7 km/h aus 107

20.9 km/h aus NNE

6.1 C

16.8 C

17.9 C

16.8 C

548 W/m

0.00 mm

14:05

17.7 C

1025.8 hpa

45 %

11.3 km/h aus 96

24.1 km/h aus NE

5.6 C

16.5 C

17.7 C

16.5 C

550 W/m

0.00 mm

14:10

18.1 C

1025.8 hpa

45 %

8.0 km/h aus 101

20.9 km/h aus NNE

6.0 C

16.9 C

18.1 C

16.9 C

551 W/m

0.00 mm

14:15

18.3 C

1025.8 hpa

46 %

8.0 km/h aus 98

17.7 km/h aus NE

6.5 C

17.1 C

18.3 C

17.1 C

546 W/m

0.00 mm

14:20

18.2 C

1025.8 hpa

46 %

11.3 km/h aus 93

22.5 km/h aus NNE

6.4 C

17.0 C

18.2 C

17.0 C

540 W/m

0.00 mm

14:25

18.1 C

1025.8 hpa

47 %

11.3 km/h aus 98

20.9 km/h aus NE

6.6 C

17.0 C

18.1 C

17.0 C

535 W/m

0.00 mm

14:30

18.2 C

1025.7 hpa

45 %

9.7 km/h aus 96

17.7 km/h aus ESE

6.1 C

17.0 C

18.2 C

17.0 C

531 W/m

0.00 mm

14:35

18.3 C

1025.7 hpa

46 %

6.4 km/h aus 102

14.5 km/h aus E

6.5 C

17.1 C

18.3 C

17.1 C

534 W/m

0.00 mm

14:40

18.3 C

1025.7 hpa

44 %

11.3 km/h aus 103

22.5 km/h aus NNE

5.9 C

17.1 C

18.3 C

17.1 C

528 W/m

0.00 mm

14:45

18.3 C

1025.6 hpa

45 %

12.9 km/h aus 89

20.9 km/h aus NNW

6.2 C

16.8 C

18.0 C

17.1 C

530 W/m

0.00 mm

14:50

18.1 C

1025.6 hpa

44 %

9.7 km/h aus 94

17.7 km/h aus N

5.6 C

16.8 C

18.1 C

16.8 C

526 W/m

0.00 mm

14:55

18.3 C

1025.6 hpa

46 %

8.0 km/h aus 100

20.9 km/h aus NNW

6.5 C

17.2 C

18.3 C

17.2 C

521 W/m

0.00 mm

15:00

18.2 C

1025.4 hpa

44 %

8.0 km/h aus 82

19.3 km/h aus NE

5.7 C

16.9 C

18.2 C

16.9 C

514 W/m

0.00 mm

15:05

18.2 C

1025.4 hpa

43 %

9.7 km/h aus 85

20.9 km/h aus NNE

5.4 C

16.9 C

18.2 C

16.9 C

511 W/m

0.00 mm

15:10

18.2 C

1025.4 hpa

45 %

11.3 km/h aus 91

20.9 km/h aus N

6.0 C

16.9 C

18.2 C

16.9 C

501 W/m

0.00 mm

15:15

18.4 C

1025.3 hpa

45 %

8.0 km/h aus 84

16.1 km/h aus N

6.3 C

17.2 C

18.4 C

17.2 C

502 W/m

0.00 mm

15:20

18.6 C

1025.3 hpa

43 %

6.4 km/h aus 87

11.3 km/h aus ENE

5.7 C

17.3 C

18.6 C

17.3 C

448 W/m

0.00 mm

15:25

18.4 C

1025.3 hpa

43 %

8.0 km/h aus 93

20.9 km/h aus ENE

5.6 C

17.1 C

18.4 C

17.1 C

283 W/m

0.00 mm

15:30

18.4 C

1025.3 hpa

44 %

6.4 km/h aus 93

12.9 km/h aus NNE

6.0 C

17.2 C

18.4 C

17.2 C

379 W/m

0.00 mm

15:35

18.6 C

1025.3 hpa

42 %

9.7 km/h aus 82

22.5 km/h aus NE

5.4 C

17.3 C

18.6 C

17.3 C

471 W/m

0.00 mm

15:40

18.5 C

1025.3 hpa

41 %

8.0 km/h aus 92

19.3 km/h aus NE

5.0 C

17.1 C

18.5 C

17.1 C

385 W/m

0.00 mm

15:45

18.6 C

1025.3 hpa

41 %

9.7 km/h aus 87

19.3 km/h aus NNE

5.0 C

17.2 C

18.6 C

17.2 C

256 W/m

0.00 mm

15:50

18.3 C

1025.3 hpa

42 %

6.4 km/h aus 82

14.5 km/h aus N

5.2 C

17.0 C

18.3 C

17.0 C

370 W/m

0.00 mm

15:55

18.4 C

1025.3 hpa

41 %

9.7 km/h aus 89

20.9 km/h aus NNE

4.9 C

17.1 C

18.4 C

17.1 C

305 W/m

0.00 mm

16:00

18.6 C

1025.1 hpa

41 %

6.4 km/h aus 83

14.5 km/h aus N

5.0 C

17.2 C

18.6 C

17.2 C

306 W/m

0.00 mm

16:05

18.4 C

1025.1 hpa

41 %

9.7 km/h aus 85

19.3 km/h aus N

4.9 C

17.0 C

18.4 C

17.0 C

206 W/m

0.00 mm

16:10

18.3 C

1025.1 hpa

42 %

8.0 km/h aus 89

16.1 km/h aus NE

5.2 C

17.0 C

18.3 C

17.0 C

176 W/m

0.00 mm

16:15

18.4 C

1025.1 hpa

42 %

6.4 km/h aus 84

14.5 km/h aus NNE

5.3 C

17.1 C

18.4 C

17.1 C

155 W/m

0.00 mm

16:20

18.4 C

1025.1 hpa

41 %

9.7 km/h aus 75

19.3 km/h aus N

4.9 C

17.0 C

18.4 C

17.0 C

245 W/m

0.00 mm

16:25

18.6 C

1025.1 hpa

41 %

11.3 km/h aus 79

25.7 km/h aus N

5.0 C

17.2 C

18.6 C

17.2 C

370 W/m

0.00 mm

16:30

18.5 C

1025.3 hpa

41 %

9.7 km/h aus 87

20.9 km/h aus N

5.0 C

17.1 C

18.5 C

17.1 C

224 W/m

0.00 mm

16:35

18.6 C

1025.3 hpa

41 %

8.0 km/h aus 79

19.3 km/h aus N

5.0 C

17.2 C

18.6 C

17.2 C

350 W/m

0.00 mm

16:40

18.5 C

1025.3 hpa

41 %

6.4 km/h aus 88

16.1 km/h aus NE

5.0 C

17.1 C

18.5 C

17.1 C

346 W/m

0.00 mm

16:45

18.3 C

1025.0 hpa

42 %

9.7 km/h aus 77

22.5 km/h aus NE

5.2 C

17.0 C

18.3 C

17.0 C

333 W/m

0.00 mm

16:50

18.3 C

1025.0 hpa

40 %

12.9 km/h aus 88

22.5 km/h aus NE

4.5 C

16.6 C

18.0 C

16.9 C

308 W/m

0.00 mm

16:55

18.2 C

1025.0 hpa

40 %

8.0 km/h aus 83

17.7 km/h aus N

4.3 C

16.7 C

18.2 C

16.7 C

302 W/m

0.00 mm

17:00

18.3 C

1025.0 hpa

41 %

4.8 km/h aus 83

14.5 km/h aus NE

4.8 C

16.9 C

18.3 C

16.9 C

289 W/m

0.00 mm

17:05

18.4 C

1025.0 hpa

40 %

6.4 km/h aus 80

14.5 km/h aus NE

4.5 C

16.9 C

18.4 C

16.9 C

281 W/m

0.00 mm

17:10

18.3 C

1025.0 hpa

40 %

8.0 km/h aus 81

17.7 km/h aus NE

4.5 C

16.9 C

18.3 C

16.9 C

275 W/m

0.00 mm

17:15

18.3 C

1025.0 hpa

40 %

8.0 km/h aus 67

16.1 km/h aus NE

4.4 C

16.8 C

18.3 C

16.8 C

264 W/m

0.00 mm

17:20

18.2 C

1025.0 hpa

41 %

8.0 km/h aus 71

19.3 km/h aus N

4.7 C

16.8 C

18.2 C

16.8 C

241 W/m

0.00 mm

17:25

18.2 C

1025.0 hpa

40 %

6.4 km/h aus 81

16.1 km/h aus E

4.3 C

16.7 C

18.2 C

16.7 C

232 W/m

0.00 mm

17:30

18.1 C

1025.1 hpa

41 %

8.0 km/h aus 92

20.9 km/h aus ENE

4.6 C

16.7 C

18.1 C

16.7 C

224 W/m

0.00 mm

17:35

18.0 C

1025.1 hpa

41 %

11.3 km/h aus 90

19.3 km/h aus NE

4.5 C

16.6 C

18.0 C

16.6 C

209 W/m

0.00 mm

17:40

17.8 C

1025.1 hpa

42 %

9.7 km/h aus 85

19.3 km/h aus NE

4.7 C

16.4 C

17.8 C

16.4 C

186 W/m

0.00 mm

17:45

17.7 C

1025.0 hpa

42 %

8.0 km/h aus 87

17.7 km/h aus ENE

4.6 C

16.3 C

17.7 C

16.3 C

175 W/m

0.00 mm

17:50

17.7 C

1025.0 hpa

43 %

6.4 km/h aus 98

11.3 km/h aus NNE

5.0 C

16.4 C

17.7 C

16.4 C

159 W/m

0.00 mm

17:55

17.7 C

1025.0 hpa

44 %

6.4 km/h aus 91

16.1 km/h aus ENE

5.3 C

16.4 C

17.7 C

16.4 C

115 W/m

0.00 mm

18:00

17.5 C

1024.8 hpa

45 %

6.4 km/h aus 83

17.7 km/h aus NE

5.4 C

16.3 C

17.5 C

16.3 C

82 W/m

0.00 mm

18:05

17.3 C

1024.8 hpa

44 %

6.4 km/h aus 95

17.7 km/h aus E

4.9 C

15.9 C

17.3 C

15.9 C

79 W/m

0.00 mm

18:10

17.2 C

1024.8 hpa

45 %

6.4 km/h aus 93

14.5 km/h aus ENE

5.2 C

15.9 C

17.2 C

15.9 C

85 W/m

0.00 mm

18:15

17.1 C

1024.8 hpa

46 %

6.4 km/h aus 89

14.5 km/h aus NE

5.4 C

15.9 C

17.1 C

15.9 C

92 W/m

0.00 mm

18:20

17.1 C

1024.8 hpa

46 %

8.0 km/h aus 93

17.7 km/h aus NE

5.3 C

15.8 C

17.1 C

15.8 C

89 W/m

0.00 mm

18:25

17.0 C

1024.8 hpa

46 %

4.8 km/h aus 90

19.3 km/h aus NE

5.3 C

15.8 C

17.0 C

15.8 C

79 W/m

0.00 mm

18:30

16.9 C

1024.8 hpa

47 %

6.4 km/h aus 92

17.7 km/h aus NNE

5.5 C

15.7 C

16.9 C

15.7 C

66 W/m

0.00 mm

18:35

16.8 C

1024.8 hpa

47 %

6.4 km/h aus 97

16.1 km/h aus NE

5.4 C

15.7 C

16.8 C

15.7 C

55 W/m

0.00 mm

18:40

16.7 C

1024.8 hpa

47 %

3.2 km/h aus 109

8.0 km/h aus NE

5.3 C

15.6 C

16.7 C

15.6 C

50 W/m

0.00 mm

18:45

16.6 C

1024.8 hpa

49 %

4.8 km/h aus 99

11.3 km/h aus NE

5.8 C

15.4 C

16.6 C

15.4 C

44 W/m

0.00 mm

18:50

16.4 C

1024.8 hpa

49 %

4.8 km/h aus 106

9.7 km/h aus NNE

5.6 C

15.3 C

16.4 C

15.3 C

36 W/m

0.00 mm

18:55

16.3 C

1024.8 hpa

49 %

4.8 km/h aus 110

9.7 km/h aus NNW

5.6 C

15.2 C

16.3 C

15.2 C

31 W/m

0.00 mm

19:00

16.3 C

1024.8 hpa

49 %

3.2 km/h aus 116

8.0 km/h aus NNE

5.5 C

15.2 C

16.3 C

15.2 C

27 W/m

0.00 mm

19:05

16.3 C

1024.8 hpa

49 %

3.2 km/h aus 114

8.0 km/h aus NE

5.5 C

15.2 C

16.3 C

15.2 C

23 W/m

0.00 mm

19:10

16.2 C

1024.8 hpa

50 %

1.6 km/h aus 115

6.4 km/h aus NE

5.8 C

15.1 C

16.2 C

15.1 C

18 W/m

0.00 mm

19:15

16.1 C

1025.0 hpa

50 %

1.6 km/h aus 114

8.0 km/h aus N

5.7 C

15.0 C

16.1 C

15.0 C

14 W/m

0.00 mm

19:20

16.0 C

1025.0 hpa

51 %

4.8 km/h aus 114

9.7 km/h aus N

5.9 C

14.9 C

16.0 C

14.9 C

11 W/m

0.00 mm

19:25

15.9 C

1025.0 hpa

51 %

1.6 km/h aus 116

8.0 km/h aus N

5.8 C

14.8 C

15.9 C

14.8 C

7 W/m

0.00 mm

19:30

15.7 C

1025.1 hpa

51 %

1.6 km/h aus 114

6.4 km/h aus NNE

5.6 C

14.7 C

15.7 C

14.7 C

3 W/m

0.00 mm

19:35

15.5 C

1025.1 hpa

52 %

1.6 km/h aus 115

6.4 km/h aus NE

5.7 C

14.5 C

15.5 C

14.5 C

0 W/m

0.00 mm

19:40

15.3 C

1025.1 hpa

53 %

3.2 km/h aus 117

6.4 km/h aus NE

5.7 C

14.3 C

15.3 C

14.3 C

0 W/m

0.00 mm

19:45

15.1 C

1024.9 hpa

53 %

1.6 km/h aus 116

8.0 km/h aus NE

5.5 C

14.1 C

15.1 C

14.1 C

0 W/m

0.00 mm

19:50

14.8 C

1024.9 hpa

54 %

1.6 km/h aus 117

6.4 km/h aus NE

5.6 C

13.9 C

14.8 C

13.9 C

0 W/m

0.00 mm

19:55

14.6 C

1024.9 hpa

55 %

1.6 km/h aus 112

6.4 km/h aus NE

5.7 C

13.7 C

14.6 C

13.7 C

0 W/m

0.00 mm

20:00

14.4 C

1025.0 hpa

55 %

1.6 km/h aus 116

4.8 km/h aus NE

5.5 C

13.5 C

14.4 C

13.5 C

0 W/m

0.00 mm

20:05

14.2 C

1025.0 hpa

55 %

1.6 km/h aus 117

3.2 km/h aus NE

5.3 C

13.3 C

14.2 C

13.3 C

0 W/m

0.00 mm

20:10

14.1 C

1025.0 hpa

55 %

1.6 km/h aus 118

4.8 km/h aus NE

5.1 C

13.2 C

14.1 C

13.2 C

0 W/m

0.00 mm

20:15

13.8 C

1025.2 hpa

56 %

3.2 km/h aus 117

8.0 km/h aus NE

5.2 C

13.0 C

13.8 C

13.0 C

0 W/m

0.00 mm

20:20

13.7 C

1025.2 hpa

57 %

3.2 km/h aus 113

8.0 km/h aus NE

5.3 C

12.8 C

13.7 C

12.8 C

0 W/m

0.00 mm

20:25

13.5 C

1025.2 hpa

56 %

0.0 km/h aus 116

3.2 km/h aus NE

4.9 C

12.7 C

13.5 C

12.7 C

0 W/m

0.00 mm

20:30

13.3 C

1025.3 hpa

57 %

1.6 km/h aus 116

3.2 km/h aus NE

5.0 C

12.5 C

13.3 C

12.5 C

0 W/m

0.00 mm

20:35

13.2 C

1025.3 hpa

57 %

1.6 km/h aus 116

4.8 km/h aus NE

4.8 C

12.3 C

13.2 C

12.3 C

0 W/m

0.00 mm

20:40

13.0 C

1025.3 hpa

58 %

0.0 km/h aus 116

3.2 km/h aus NE

4.9 C

12.2 C

13.0 C

12.2 C

0 W/m

0.00 mm

20:45

12.8 C

1025.4 hpa

58 %

0.0 km/h aus 114

3.2 km/h aus NE

4.7 C

12.0 C

12.8 C

12.0 C

0 W/m

0.00 mm

20:50

12.6 C

1025.4 hpa

59 %

0.0 km/h aus 116

1.6 km/h aus NE

4.8 C

11.8 C

12.6 C

11.8 C

0 W/m

0.00 mm

20:55

12.3 C

1025.4 hpa

60 %

0.0 km/h aus 113

0.0 km/h aus ---

4.8 C

11.7 C

12.3 C

11.7 C

0 W/m

0.00 mm

21:00

12.1 C

1025.6 hpa

60 %

0.0 km/h aus 116

0.0 km/h aus ---

4.6 C

11.4 C

12.1 C

11.4 C

0 W/m

0.00 mm

21:05

11.9 C

1025.6 hpa

61 %

0.0 km/h aus 115

0.0 km/h aus ---

4.6 C

11.3 C

11.9 C

11.3 C

0 W/m

0.00 mm

21:10

11.7 C

1025.6 hpa

62 %

0.0 km/h aus 115

0.0 km/h aus ---

4.7 C

11.2 C

11.7 C

11.2 C

0 W/m

0.00 mm

21:15

11.6 C

1025.9 hpa

63 %

1.6 km/h aus 114

6.4 km/h aus NNE

4.8 C

11.1 C

11.6 C

11.1 C

0 W/m

0.00 mm

21:20

11.5 C

1025.9 hpa

64 %

1.6 km/h aus 116

6.4 km/h aus NNE

4.9 C

11.0 C

11.5 C

11.0 C

0 W/m

0.00 mm

21:25

11.3 C

1025.9 hpa

65 %

1.6 km/h aus 115

4.8 km/h aus NNE

5.0 C

10.9 C

11.3 C

10.9 C

0 W/m

0.00 mm

21:30

11.2 C

1025.9 hpa

66 %

1.6 km/h aus 116

4.8 km/h aus N

5.1 C

10.8 C

11.2 C

10.8 C

0 W/m

0.00 mm

21:35

11.1 C

1025.9 hpa

66 %

1.6 km/h aus 115

6.4 km/h aus N

5.0 C

10.7 C

11.1 C

10.7 C

0 W/m

0.00 mm

21:40

11.1 C

1025.9 hpa

66 %

0.0 km/h aus 113

3.2 km/h aus NNE

4.9 C

10.7 C

11.1 C

10.7 C

0 W/m

0.00 mm

21:45

10.9 C

1026.1 hpa

66 %

1.6 km/h aus 114

6.4 km/h aus NNE

4.8 C

10.6 C

10.9 C

10.6 C

0 W/m

0.00 mm

21:50

10.9 C

1026.1 hpa

67 %

1.6 km/h aus 116

4.8 km/h aus N

5.0 C

10.5 C

10.9 C

10.5 C

0 W/m

0.00 mm

21:55

10.8 C

1026.1 hpa

67 %

1.6 km/h aus 117

6.4 km/h aus NNE

4.9 C

10.4 C

10.8 C

10.4 C

0 W/m

0.00 mm

22:00

10.7 C

1026.2 hpa

67 %

1.6 km/h aus 115

6.4 km/h aus NNE

4.8 C

10.3 C

10.7 C

10.3 C

0 W/m

0.00 mm

22:05

10.7 C

1026.2 hpa

67 %

1.6 km/h aus 116

6.4 km/h aus NNE

4.8 C

10.3 C

10.7 C

10.3 C

0 W/m

0.00 mm

22:10

10.6 C

1026.2 hpa

68 %

1.6 km/h aus 114

6.4 km/h aus NE

4.9 C

10.2 C

10.6 C

10.2 C

0 W/m

0.00 mm

22:15

10.5 C

1026.3 hpa

69 %

3.2 km/h aus 118

8.0 km/h aus NNE

5.0 C

10.2 C

10.5 C

10.2 C

0 W/m

0.00 mm

22:20

10.5 C

1026.3 hpa

69 %

3.2 km/h aus 114

11.3 km/h aus NE

5.0 C

10.2 C

10.5 C

10.2 C

0 W/m

0.00 mm

22:25

10.6 C

1026.3 hpa

70 %

3.2 km/h aus 115

8.0 km/h aus NNE

5.3 C

10.3 C

10.6 C

10.3 C

0 W/m

0.00 mm

22:30

10.6 C

1026.2 hpa

70 %

3.2 km/h aus 115

11.3 km/h aus NNE

5.4 C

10.3 C

10.6 C

10.3 C

0 W/m

0.00 mm

22:35

10.6 C

1026.2 hpa

70 %

4.8 km/h aus 109

12.9 km/h aus NNE

5.4 C

10.2 C

10.5 C

10.3 C

0 W/m

0.00 mm

22:40

10.7 C

1026.2 hpa

70 %

3.2 km/h aus 113

11.3 km/h aus N

5.4 C

10.4 C

10.7 C

10.4 C

0 W/m

0.00 mm

22:45

10.7 C

1026.4 hpa

70 %

4.8 km/h aus 114

9.7 km/h aus NNE

5.5 C

10.3 C

10.6 C

10.4 C

0 W/m

0.00 mm

22:50

10.8 C

1026.4 hpa

70 %

4.8 km/h aus 115

11.3 km/h aus NE

5.5 C

10.4 C

10.7 C

10.5 C

0 W/m

0.00 mm

22:55

10.8 C

1026.4 hpa

70 %

4.8 km/h aus 113

9.7 km/h aus NNE

5.5 C

10.4 C

10.7 C

10.5 C

0 W/m

0.00 mm

23:00

10.8 C

1026.2 hpa

70 %

4.8 km/h aus 105

14.5 km/h aus NE

5.6 C

10.5 C

10.8 C

10.6 C

0 W/m

0.00 mm

23:05

10.8 C

1026.2 hpa

70 %

4.8 km/h aus 109

14.5 km/h aus N

5.6 C

10.5 C

10.8 C

10.6 C

0 W/m

0.00 mm

23:10

10.8 C

1026.2 hpa

70 %

3.2 km/h aus 116

9.7 km/h aus NE

5.5 C

10.5 C

10.8 C

10.5 C

0 W/m

0.00 mm

23:15

10.8 C

1026.3 hpa

70 %

3.2 km/h aus 114

11.3 km/h aus NNE

5.5 C

10.5 C

10.8 C

10.5 C

0 W/m

0.00 mm

23:20

10.7 C

1026.3 hpa

70 %

1.6 km/h aus 116

8.0 km/h aus NE

5.5 C

10.4 C

10.7 C

10.4 C

0 W/m

0.00 mm

23:25

10.7 C

1026.3 hpa

71 %

3.2 km/h aus 115

6.4 km/h aus NNE

5.6 C

10.4 C

10.7 C

10.4 C

0 W/m

0.00 mm

23:30

10.6 C

1026.3 hpa

71 %

3.2 km/h aus 113

11.3 km/h aus NNE

5.6 C

10.3 C

10.6 C

10.3 C

0 W/m

0.00 mm

23:35

10.6 C

1026.3 hpa

71 %

1.6 km/h aus 115

8.0 km/h aus NNE

5.5 C

10.3 C

10.6 C

10.3 C

0 W/m

0.00 mm

23:40

10.6 C

1026.3 hpa

71 %

3.2 km/h aus 116

8.0 km/h aus NE

5.5 C

10.3 C

10.6 C

10.3 C

0 W/m

0.00 mm

23:45

10.4 C

1026.1 hpa

71 %

1.6 km/h aus 116

4.8 km/h aus ENE

5.4 C

10.2 C

10.4 C

10.2 C

0 W/m

0.00 mm

23:50

10.4 C

1026.1 hpa

71 %

1.6 km/h aus 117

4.8 km/h aus NE

5.4 C

10.2 C

10.4 C

10.2 C

0 W/m

0.00 mm

23:55

10.3 C

1026.1 hpa

71 %

1.6 km/h aus 114

6.4 km/h aus NE

5.2 C

10.1 C

10.3 C

10.1 C

0 W/m

0.00 mm